CW5306 Weather Reports


time (UTC)temp
C
wind
direction
speed
KPH
gust
KPH
rain 1hr
cm
rain 24hr
cm
rain mn
cm
humidity
%
barometer
mb
20260508005158 26 100 0.0 16.1 0.10 0.10 0.10 70 1018.0
20260508004658 26 25 11.3 17.7 0.10 0.10 0.10 70 1018.1
20260508004652 26 59 3.2 17.7 0.10 0.10 0.10 70 1018.1
20260508003641 26 43 6.4 17.7 0.10 0.10 0.10 71 1018.2
20260508003137 26 54 0.0 17.7 0.10 0.10 0.10 70 1018.2
20260508002623 26 54 1.6 17.7 0.08 0.08 0.10 70 1018.2
20260508002354 26 32 8.0 17.7 0.00 0.00 0.00 71 1018.3
20260508001854 26 80 6.4 20.9 0.00 0.00 0.00 70 1018.2
20260508001123 26 38 6.4 20.9 0.00 0.00 0.00 70 1018.4
20260508000622 26 75 1.6 20.9 0.00 0.00 0.00 72 1018.4
20260508000123 26 62 6.4 20.9 0.00 0.00 0.00 70 1018.3
20260507235855 26 52 4.8 20.9 0.00 0.00 0.00 69 1018.4
20260507235354 26 86 6.4 20.9 0.00 0.00 0.00 70 1018.4
20260507234622 26 10 6.4 17.7 0.00 0.00 0.00 70 1018.4
20260507234122 26 72 9.7 20.9 0.00 0.00 0.00 72 1018.4
20260507233623 26 64 9.7 20.9 0.00 0.00 0.00 71 1018.3
20260507233123 26 60 8.0 20.9 0.00 0.00 0.00 71 1018.6
20260507232854 26 46 6.4 22.5 0.00 0.00 0.00 70 1018.4
20260507232123 26 44 8.0 22.5 0.00 0.00 0.00 73 1018.5
20260507231854 26 32 1.6 22.5 0.00 0.00 0.00 72 1018.3
20260507231124 26 30 3.2 22.5 0.00 0.00 0.00 71 1018.4
20260507230853 26 81 0.0 16.1 0.00 0.00 0.00 71 1018.2
20260507230123 26 65 6.4 20.9 0.00 0.00 0.00 70 1018.6
20260507225622 26 50 14.5 20.9 0.00 0.00 0.00 68 1018.7
20260507225123 26 52 8.0 20.9 0.00 0.00 0.00 70 1018.8
20260507224623 26 99 3.2 20.9 0.00 0.00 0.00 72 1018.7
20260507224123 26 59 12.9 22.5 0.00 0.00 0.00 73 1018.9
20260507223623 26 34 6.4 22.5 0.00 0.00 0.00 70 1018.9
20260507223123 26 55 6.4 17.7 0.00 0.00 0.00 71 1018.9
20260507222624 26 86 3.2 17.7 0.00 0.00 0.00 72 1019.2
20260507222123 26 65 11.3 22.5 0.00 0.00 0.00 72 1019.0
20260507221622 26 30 9.7 22.5 0.00 0.00 0.00 72 1019.0
20260507221123 26 82 12.9 24.1 0.00 0.00 0.00 72 1018.8
20260507220623 26 67 11.3 17.7 0.00 0.00 0.00 73 1019.2
20260507220123 26 52 1.6 17.7 0.00 0.00 0.00 73 1019.2
20260507215622 26 85 4.8 17.7 0.00 0.00 0.00 72 1019.2
20260507215124 26 76 9.7 20.9 0.00 0.00 0.00 72 1019.2
20260507214623 26 34 3.2 20.9 0.00 0.00 0.00 72 1019.3
20260507214355 26 45 12.9 20.9 0.00 0.00 0.00 72 1019.2
20260507213623 26 33 3.2 22.5 0.00 0.00 0.00 72 1019.4
20260507213122 26 60 14.5 22.5 0.00 0.00 0.00 71 1019.4
20260507212622 26 61 16.1 20.9 0.00 0.00 0.00 71 1019.4
20260507212123 26 73 0.0 20.9 0.00 0.00 0.00 72 1019.4
20260507211624 26 75 0.0 20.9 0.00 0.00 0.00 71 1019.5
20260507211123 26 78 4.8 20.9 0.00 0.00 0.00 72 1019.3
20260507210622 25 78 0.0 17.7 0.00 0.00 0.00 72 1019.7
20260507210122 25 81 3.2 17.7 0.00 0.00 0.00 73 1019.5
20260507205622 25 86 1.6 17.7 0.00 0.00 0.00 72 1019.7
20260507205122 25 75 0.0 22.5 0.00 0.00 0.00 72 1019.7
20260507204622 25 46 12.9 22.5 0.00 0.00 0.00 73 1019.6
20260507204122 26 122 8.0 20.9 0.00 0.00 0.00 72 1019.9
20260507203623 25 62 12.9 20.9 0.00 0.00 0.00 73 1019.8
20260507203123 25 62 0.0 17.7 0.00 0.00 0.00 74 1019.7
20260507202623 25 56 6.4 17.7 0.00 0.00 0.00 74 1019.7
20260507202123 25 85 6.4 16.1 0.00 0.00 0.00 74 1019.7
20260507201853 25 60 0.0 16.1 0.00 0.00 0.00 75 1019.5
20260507201110 25 39 4.8 14.5 0.00 0.00 0.00 74 1019.9
20260507200610 25 61 6.4 16.1 0.00 0.00 0.00 74 1019.6
20260507200111 25 61 6.4 16.1 0.00 0.00 0.00 73 1019.8
20260507195843 25 62 4.8 17.7 0.00 0.00 0.00 73 1020.0
20260507195110 25 53 1.6 17.7 0.00 0.00 0.00 75 1019.9
20260507194610 25 35 9.7 17.7 0.00 0.00 0.00 75 1019.8
20260507194110 25 96 0.0 17.7 0.00 0.00 0.00 74 1019.8
20260507193830 25 61 4.8 16.1 0.00 0.00 0.00 74 1019.7
20260507193047 25 109 0.0 17.7 0.00 0.00 0.00 75 1019.6
20260507192547 25 79 4.8 14.5 0.00 0.00 0.00 75 1019.8
20260507192034 25 62 1.6 17.7 0.00 0.00 0.00 75 1019.9
20260507191523 25 42 6.4 17.7 0.00 0.00 0.00 74 1019.9
20260507191023 25 69 0.0 17.7 0.00 0.00 0.00 75 1019.8
20260507190511 25 92 0.0 17.7 0.00 0.00 0.00 74 1019.7
20260507190011 25 48 0.0 17.7 0.00 0.00 0.00 75 1019.6
20260507185511 24 62 0.0 16.1 0.00 0.00 0.00 74 1019.6
20260507185011 25 50 6.4 20.9 0.00 0.00 0.00 74 1019.6
20260507184511 24 98 1.6 20.9 0.00 0.00 0.00 75 1019.8
20260507184010 24 46 6.4 20.9 0.00 0.00 0.00 75 1019.5
20260507183510 24 98 12.9 20.9 0.00 0.00 0.00 75 1019.5
20260507183010 24 68 0.0 16.1 0.00 0.00 0.00 76 1019.4
20260507182741 25 71 6.4 16.1 0.00 0.00 0.00 75 1019.7
20260507182011 24 70 3.2 17.7 0.00 0.00 0.00 75 1019.4
20260507181741 24 32 8.0 17.7 0.00 0.00 0.00 76 1019.6
20260507181242 24 55 0.0 16.1 0.00 0.00 0.00 76 1019.4
20260507180741 24 114 6.4 16.1 0.00 0.00 0.00 77 1019.3
20260507180010 23 74 6.4 14.5 0.00 0.00 0.00 77 1019.1
20260507175510 23 93 0.0 14.5 0.00 0.00 0.00 77 1019.3
20260507175011 23 49 4.8 12.9 0.00 0.00 0.00 78 1019.5
20260507174741 23 60 3.2 20.9 0.00 0.00 0.00 78 1019.1
20260507174011 23 55 6.4 20.9 0.00 0.00 0.00 78 1019.4
20260507173511 23 81 0.0 12.9 0.00 0.00 0.00 79 1019.3
20260507173011 23 51 0.0 14.5 0.00 0.00 0.00 78 1019.3
20260507172511 23 60 0.0 14.5 0.00 0.00 0.00 78 1019.2
20260507172011 23 64 0.0 16.1 0.00 0.00 0.00 77 1019.3
20260507171510 23 98 9.7 16.1 0.00 0.00 0.00 79 1019.2
20260507171012 23 69 0.0 14.5 0.00 0.00 0.00 81 1019.0
20260507170742 22 93 3.2 14.5 0.00 0.00 0.00 83 1018.9
20260507170010 22 49 0.0 0.0 0.00 0.00 0.00 89 1019.2
20260507165742 21 271 0.0 0.0 0.00 0.00 0.00 89 1019.0
20260507165242 21 272 0.0 0.0 0.00 0.00 0.00 89 1018.6
20260507164510 21 271 0.0 0.0 0.00 0.00 0.00 89 1018.7
20260507163959 21 272 0.0 0.0 0.00 0.00 0.00 89 1018.7
20260507163730 21 272 0.0 0.0 0.00 0.00 0.00 89 1018.7
20260507163000 20 271 0.0 0.0 0.00 0.00 0.00 89 1018.6
20260507162458 20 271 0.0 0.0 0.00 0.00 0.00 89 1018.2
20260507162230 20 271 0.0 0.0 0.00 0.00 0.00 89 1018.6
20260507161458 20 273 0.0 0.0 0.00 0.00 0.00 89 1018.0
20260507161229 20 272 0.0 0.0 0.00 0.00 0.00 89 1018.2
20260507160459 20 272 0.0 0.0 0.00 0.00 0.00 89 1018.0
20260507160218 20 272 0.0 0.0 0.00 0.00 0.00 89 1018.2
20260507155435 20 272 0.0 0.0 0.00 0.00 0.00 89 1018.1
20260507155212 20 272 0.0 0.0 0.00 0.00 0.00 89 1018.1
20260507154935 20 273 0.0 0.0 0.00 0.00 0.00 89 1017.8
20260507153935 20 272 0.0 0.0 0.00 0.00 0.00 89 1017.8
20260507153434 20 272 0.0 0.0 0.00 0.00 0.00 89 1017.9
20260507152934 20 272 0.0 0.0 0.00 0.00 0.00 89 1017.9
20260507152434 20 272 0.0 0.0 0.00 0.00 0.00 89 1017.9
20260507151935 20 272 0.0 0.0 0.00 0.00 0.00 89 1017.8
20260507151423 20 271 0.0 0.0 0.00 0.00 0.00 89 1017.6
20260507150924 20 272 0.0 0.0 0.00 0.00 0.00 89 1017.6
20260507150424 20 272 0.0 0.0 0.00 0.00 0.00 89 1017.5
20260507145910 20 272 0.0 0.0 0.00 0.00 0.00 88 1017.4
20260507145641 20 272 0.0 0.0 0.00 0.00 0.00 88 1017.6
20260507145142 20 271 0.0 0.0 0.00 0.00 0.00 88 1017.5
20260507144410 20 271 0.0 0.0 0.00 0.00 0.00 88 1017.4
20260507143911 20 272 0.0 0.0 0.00 0.00 0.00 88 1017.4
20260507143411 20 272 0.0 0.0 0.00 0.00 0.00 88 1017.1
20260507142911 20 272 0.0 0.0 0.00 0.00 0.00 88 1017.5
20260507142411 20 272 0.0 0.0 0.00 0.00 0.00 88 1017.4
20260507141911 20 272 0.0 0.0 0.00 0.00 0.00 88 1017.2
20260507141411 20 272 0.0 0.0 0.00 0.00 0.00 88 1017.6
20260507140911 20 271 0.0 0.0 0.00 0.00 0.00 88 1017.5
20260507140411 20 272 0.0 0.0 0.00 0.00 0.00 88 1017.4
20260507135911 20 272 0.0 0.0 0.00 0.00 0.00 88 1017.4
20260507135411 20 271 0.0 0.0 0.00 0.00 0.00 88 1017.5
20260507134910 20 271 0.0 0.0 0.00 0.00 0.00 88 1017.4
20260507134410 20 271 0.0 0.0 0.00 0.00 0.00 88 1017.2
20260507133910 20 272 0.0 0.0 0.00 0.00 0.00 88 1017.4
20260507133410 20 271 0.0 0.0 0.00 0.00 0.00 88 1017.4
20260507132910 20 271 0.0 0.0 0.00 0.00 0.00 87 1017.1
20260507132406 20 271 0.0 0.0 0.00 0.00 0.00 87 1017.3
20260507132132 20 276 0.0 0.0 0.00 0.00 0.00 87 1017.2
20260507132006 21 275 0.0 0.0 0.00 0.00 0.00 87 1017.4
20260507130900 21 275 0.0 0.0 0.00 0.00 0.00 87 1017.5
20260507130402 21 275 0.0 0.0 0.00 0.00 0.00 87 1017.5
20260507125901 21 277 0.0 0.0 0.00 0.00 0.00 87 1017.5
20260507125402 21 277 0.0 0.0 0.00 0.00 0.00 87 1017.7
20260507124901 21 277 0.0 0.0 0.00 0.00 0.00 87 1017.8
20260507124400 21 277 0.0 0.0 0.00 0.00 0.00 87 1017.6
20260507123901 21 277 0.0 0.0 0.00 0.00 0.00 87 1017.4
20260507123401 21 278 0.0 0.0 0.00 0.00 0.00 87 1017.8
20260507123352 21 278 0.0 0.0 0.00 0.00 0.00 87 1018.0
20260507122349 21 284 0.0 0.0 0.00 0.00 0.00 87 1017.9
20260507121849 21 284 0.0 0.0 0.00 0.00 0.00 87 1017.8
20260507121325 21 284 0.0 0.0 0.00 0.00 0.00 87 1018.0
20260507120824 21 284 0.0 0.0 0.00 0.00 0.00 87 1017.9
20260507120324 21 284 0.0 0.0 0.00 0.00 0.00 87 1018.0
20260507120044 21 284 0.0 0.0 0.00 0.00 0.00 87 1017.9
20260507115313 21 284 0.0 0.0 0.00 0.00 0.00 87 1018.0
20260507114814 21 319 0.0 0.0 0.00 0.00 0.00 87 1018.2
20260507114313 21 8 0.0 0.0 0.00 0.00 0.00 87 1018.0
20260507113813 21 254 0.0 0.0 0.00 0.00 0.00 87 1018.1
20260507113543 21 28 0.0 0.0 0.00 0.00 0.00 87 1018.3
20260507112813 21 8 0.0 0.0 0.00 0.00 0.00 86 1018.2
20260507112313 21 165 0.0 0.0 0.00 0.00 0.00 86 1018.3
20260507111812 21 165 0.0 0.0 0.00 0.00 0.00 86 1018.3
20260507111312 21 165 0.0 0.0 0.00 0.00 0.00 86 1018.3
20260507110812 21 165 0.0 0.0 0.00 0.00 0.00 86 1018.3
20260507110313 21 165 0.0 0.0 0.00 0.00 0.00 86 1018.5
20260507105813 21 164 0.0 0.0 0.00 0.00 0.00 85 1018.5
20260507105545 21 164 0.0 0.0 0.00 0.00 0.00 85 1018.6
20260507104813 21 164 0.0 0.0 0.00 0.00 0.00 85 1018.7
20260507104313 21 164 0.0 0.0 0.00 0.00 0.00 85 1018.4
20260507104046 21 164 0.0 0.0 0.00 0.00 0.00 85 1018.6
20260507103312 21 164 0.0 0.0 0.00 0.00 0.00 85 1018.6
20260507102812 21 164 0.0 0.0 0.00 0.00 0.00 85 1018.7
20260507102313 21 164 0.0 0.0 0.00 0.00 0.00 85 1018.5
20260507101813 21 164 0.0 0.0 0.00 0.00 0.00 85 1018.9
20260507101312 21 164 0.0 0.0 0.00 0.00 0.00 85 1018.9
20260507100814 21 164 0.0 0.0 0.00 0.00 0.00 85 1018.8
20260507100312 21 164 0.0 0.0 0.00 0.00 0.00 85 1018.9
20260507095812 21 164 0.0 0.0 0.00 0.00 0.00 85 1018.9
20260507095312 21 164 0.0 0.0 0.00 0.00 0.00 85 1018.8
20260507094813 21 164 0.0 0.0 0.00 0.00 0.00 85 1018.9
20260507094301 21 164 0.0 0.0 0.00 0.00 0.00 85 1019.0
20260507093801 21 164 0.0 0.0 0.00 0.00 0.00 85 1019.0
20260507093300 21 163 0.0 0.0 0.00 0.00 0.00 85 1019.0
20260507092800 21 163 0.0 0.0 0.00 0.00 0.00 86 1019.2
20260507092532 21 164 0.0 0.0 0.00 0.00 0.00 85 1018.9
20260507091802 21 45 0.0 0.0 0.00 0.00 0.00 86 1019.2
20260507091301 21 276 0.0 0.0 0.00 0.00 0.00 85 1019.1
20260507090750 21 271 0.0 0.0 0.00 0.00 0.00 84 1019.2
20260507090520 21 264 0.0 0.0 0.00 0.00 0.00 84 1019.3
20260507085748 21 262 0.0 0.0 0.00 0.00 0.00 84 1019.4
20260507085248 21 262 0.0 0.0 0.00 0.00 0.00 84 1019.1
20260507084748 21 262 0.0 0.0 0.00 0.00 0.00 85 1019.1
20260507084520 21 278 0.0 0.0 0.00 0.00 0.00 85 1019.1
20260507083749 21 278 0.0 0.0 0.00 0.00 0.00 85 1019.3
20260507083507 21 270 0.0 0.0 0.00 0.00 0.00 85 1019.2
20260507082736 21 279 0.0 0.0 0.00 0.00 0.00 84 1019.3
20260507082237 21 280 0.0 0.0 0.00 0.00 0.00 84 1019.1
20260507081724 21 287 0.0 0.0 0.00 0.00 0.00 83 1018.9
20260507081457 21 302 0.0 0.0 0.00 0.00 0.00 83 1019.0
20260507080712 21 244 0.0 0.0 0.00 0.00 0.00 83 1018.9
20260507080213 21 244 0.0 0.0 0.00 0.00 0.00 83 1019.0
20260507075712 21 244 0.0 0.0 0.00 0.00 0.00 83 1019.2
20260507075213 21 244 0.0 0.0 0.00 0.00 0.00 83 1019.0
20260507074932 21 244 0.0 0.0 0.00 0.00 0.00 83 1019.0
20260507074201 21 244 0.0 0.0 0.00 0.00 0.00 82 1018.9
20260507073702 22 244 0.0 0.0 0.00 0.00 0.00 82 1019.2
20260507073149 22 244 0.0 0.0 0.00 0.00 0.00 82 1019.0
20260507072651 22 243 0.0 0.0 0.00 0.00 0.00 81 1019.0
20260507072126 22 243 0.0 0.0 0.00 0.00 0.00 81 1018.9
20260507071626 22 244 0.0 0.0 0.00 0.00 0.00 80 1018.9
20260507071356 22 244 0.0 0.0 0.00 0.00 0.00 80 1018.8
20260507070625 22 270 0.0 0.0 0.00 0.00 0.00 79 1018.7
20260507070356 22 270 0.0 0.0 0.00 0.00 0.00 79 1018.7
20260507065856 22 270 0.0 0.0 0.00 0.00 0.00 79 1018.7
20260507065125 22 272 0.0 0.0 0.00 0.00 0.00 78 1018.4
20260507064613 22 272 0.0 0.0 0.00 0.00 0.00 78 1018.4
20260507064112 22 273 0.0 0.0 0.00 0.00 0.00 78 1018.2
20260507063613 23 272 0.0 0.0 0.00 0.00 0.00 77 1018.4
20260507063113 23 278 0.0 0.0 0.00 0.00 0.00 77 1018.2
20260507062613 23 277 0.0 0.0 0.00 0.00 0.00 76 1018.0
20260507062344 23 62 0.0 0.0 0.00 0.00 0.00 75 1017.9
20260507062219 23 62 0.0 0.0 0.00 0.00 0.00 75 1018.0
20260507061112 23 30 0.0 0.0 0.00 0.00 0.00 75 1017.9
20260507060844 23 8 0.0 0.0 0.00 0.00 0.00 74 1017.7
20260507060112 23 42 0.0 9.7 0.00 0.00 0.00 74 1017.7
20260507055613 23 40 0.0 9.7 0.00 0.00 0.00 74 1017.7
20260507055112 23 42 0.0 9.7 0.00 0.00 0.00 75 1017.6
20260507054843 23 38 0.0 1.6 0.00 0.00 0.00 75 1017.7
20260507054343 23 34 0.0 9.7 0.00 0.00 0.00 76 1017.5
20260507053613 23 52 0.0 9.7 0.00 0.00 0.00 74 1017.7
20260507053120 23 350 0.0 8.0 0.00 0.00 0.00 74 1017.5
20260507053114 23 37 0.0 8.0 0.00 0.00 0.00 75 1017.4
20260507052112 23 32 0.0 8.0 0.00 0.00 0.00 75 1017.3
20260507051612 23 51 0.0 14.5 0.00 0.00 0.00 74 1017.2
20260507051112 23 46 0.0 14.5 0.00 0.00 0.00 75 1017.4
20260507050612 23 42 0.0 12.9 0.00 0.00 0.00 76 1017.2
20260507050343 23 29 0.0 12.9 0.00 0.00 0.00 75 1017.3
20260507045613 23 35 0.0 9.7 0.00 0.00 0.00 75 1017.2
20260507045113 23 11 0.0 14.5 0.00 0.00 0.00 75 1017.3
20260507044613 23 24 0.0 14.5 0.00 0.00 0.00 75 1017.1
20260507044112 23 48 0.0 14.5 0.00 0.00 0.00 76 1017.1
20260507043612 23 54 0.0 14.5 0.00 0.00 0.00 75 1017.3
20260507043112 23 40 4.8 14.5 0.00 0.00 0.00 76 1017.0
20260507042612 23 354 8.0 12.9 0.00 0.00 0.00 76 1017.0
20260507042112 23 40 4.8 9.7 0.00 0.00 0.00 76 1016.8
20260507041613 23 37 0.0 16.1 0.00 0.00 0.00 75 1016.7
20260507041113 23 40 8.0 16.1 0.00 0.00 0.00 75 1016.7
20260507040844 23 38 0.0 16.1 0.00 0.00 0.00 75 1016.6
20260507040113 23 46 0.0 16.1 0.00 0.00 0.00 75 1016.5
20260507035612 23 46 0.0 14.5 0.00 0.00 0.00 74 1016.6
20260507035112 23 47 0.0 14.5 0.00 0.00 0.00 75 1016.5
20260507034613 24 37 6.4 9.7 0.00 0.00 0.00 75 1016.6
20260507034343 24 28 3.2 17.7 0.00 0.00 0.00 75 1016.6
20260507033619 24 359 0.0 14.5 0.00 0.00 0.00 73 1016.3
20260507033613 24 34 0.0 17.7 0.00 0.00 0.00 74 1016.6
20260507032613 24 30 0.0 12.9 0.00 0.00 0.00 74 1016.2
20260507032112 24 11 3.2 14.5 0.00 0.00 0.00 73 1016.2
20260507031612 24 358 0.0 14.5 0.00 0.00 0.00 74 1016.5
20260507031344 24 11 9.7 12.9 0.00 0.00 0.00 73 1016.3
20260507030613 24 345 0.0 14.5 0.00 0.00 0.00 74 1016.3
20260507025549 24 6 0.0 17.7 0.00 0.00 0.00 74 1016.2
20260507025321 24 29 0.0 9.7 0.00 0.00 0.00 74 1016.3
20260507024537 24 28 0.0 14.5 0.00 0.00 0.00 75 1016.1
20260507024037 24 350 0.0 17.7 0.00 0.00 0.00 75 1016.0
20260507023536 24 347 0.0 17.7 0.00 0.00 0.00 75 1016.0
20260507023037 24 356 12.9 17.7 0.00 0.00 0.00 74 1016.1
20260507022537 24 329 0.0 14.5 0.00 0.00 0.00 75 1016.1
20260507022036 24 353 0.0 14.5 0.00 0.00 0.00 75 1016.2
20260507021807 24 12 0.0 14.5 0.00 0.00 0.00 75 1016.3
20260507021037 24 44 9.7 17.7 0.00 0.00 0.00 75 1016.0
20260507020537 24 345 1.6 17.7 0.00 0.00 0.00 74 1016.0
20260507020037 24 7 0.0 16.1 0.00 0.00 0.00 74 1016.1
20260507015537 25 16 0.0 16.1 0.00 0.00 0.00 74 1016.0
20260507015307 25 355 4.8 16.1 0.00 0.00 0.00 75 1016.2
20260507014808 25 36 6.4 20.9 0.00 0.00 0.00 75 1016.1
20260507014025 25 22 1.6 20.9 0.00 0.00 0.00 73 1016.2
20260507013757 25 342 9.7 14.5 0.00 0.00 0.00 74 1016.0
20260507013026 25 26 0.0 14.5 0.00 0.00 0.00 75 1015.9
20260507012524 25 345 0.0 17.7 0.00 0.00 0.00 74 1016.0
20260507012024 25 23 0.0 17.7 0.00 0.00 0.00 74 1016.1
20260507011526 25 36 0.0 20.9 0.00 0.00 0.00 73 1016.0
20260507011025 25 329 4.8 20.9 0.00 0.00 0.00 73 1016.0
20260507010513 25 352 0.0 14.5 0.00 0.00 0.00 74 1015.9
20260507010013 25 340 6.4 17.7 0.00 0.00 0.00 74 1016.1
20260507005744 25 35 0.0 17.7 0.00 0.00 0.00 73 1016.4